カタログに戻る

STARLINK-2099

運用中通信VLEO
NORAD 47379·PAYLOAD·🇺🇸 United States

打ち上げ Jan 20, 2021 から Cape Canaveral Space Force Station

Loading…

次のパス (今後24時間)

TLE

最新Source: CelesTrak SupGP

元期: Sep 14, 2026, 21:21 UTC

1 47379C 21005AG  26257.89006944  .00020068  00000+0  64530-3 0  2573
2 47379  53.1601 213.0440 0001459  91.6371 342.0342 15.31693269    12

AllMySatでSTARLINK-2099をリアルタイム追跡

Download on the App Store